Location: Centerville
(32.8776°N, 96.6203°W)
Time: 00:39:23
(UTC+00:00)

KORONAS-FOTON - Pass Details

Date: 17 June 2021
Orbit: 506 x 530 km, 82.4° (Epoch: 01 August)

Event Time Altitude Azimuth Distance (km) Brightness Sun altitude
Exits shadow 03:56:07 53° 251° (WSW) 634 4.2 -23.2°
Maximum altitude 03:56:29 56° 278° (W) 613 4.3 -23.2°
Drops below altitude 10° 04:00:14 10° 357° (N) 1,734 7.2 -23.7°
Sets 04:02:23 0° 2° (N) 2,620 8.2 -24.0°
